Location: White Ridge parking lot
(35.4984°N, 106.8413°W)
Time: 17:23:17
(UTC-07:00)

XW-2B - Pass Details

Date: 21 October 2019
Orbit: 508 x 528 km, 97.5° (Epoch: 21 November)

Event Time Altitude Azimuth Distance (km) Brightness Sun altitude
Rises 06:18:28 0° 28° (NNE) 2,613 ? -13.0°
Reaches altitude 10° 06:20:58 10° 45° (NE) 1,723 ? -12.5°
Maximum altitude 06:23:48 21° 96° (E) 1,192 ? -11.9°
Drops below altitude 10° 06:26:37 10° 146° (SE) 1,715 ? -11.3°
Sets 06:29:05 0° 163° (SSE) 2,597 ? -10.8°
